This is the latest recevied weather packets stored in our database for station/object TG5ALY-15. If no packets are shown the sender has not sent any weather packets the latest 10 day(s).
| Time | Temp. | Humidity | Pressure | Rain* | Wind** | Luminosity | Snow |
|---|---|---|---|---|---|---|---|
| 1778065430 | 10.56° C | 93% | 1030.4 hPa | 0 mm | - | 0 W/m² | - |
| 1778064224 | 11.11° C | 93% | 1030.4 hPa | 0 mm | - | 0 W/m² | - |
| 1778063020 | 11.11° C | 92% | 1029.9 hPa | 0 mm | - | 0 W/m² | - |
| 1778061815 | 11.11° C | 92% | 1029.9 hPa | 0 mm | - | 0 W/m² | - |
| 1778060611 | 11.11° C | 91% | 1029.9 hPa | 0 mm | - | 0 W/m² | - |
| 1778059407 | 11.67° C | 89% | 1030.4 hPa | 0 mm | - | 0 W/m² | - |
| 1778058202 | 11.67° C | 91% | 1030.4 hPa | 0 mm | - | 0 W/m² | - |
| 1778057000 | 11.67° C | 91% | 1030.4 hPa | 0 mm | - | 0 W/m² | - |
| 1778055800 | 11.67° C | 89% | 1030.4 hPa | 0 mm | - | 0 W/m² | - |
| 1778054599 | 12.22° C | 91% | 1030.4 hPa | 0 mm | - | 0 W/m² | - |
| 1778053394 | 11.67° C | 91% | 1030.4 hPa | 0 mm | - | 0 W/m² | - |
| 1778052190 | 12.22° C | 90% | 1030.4 hPa | 0 mm | - | 0 W/m² | - |
| 1778050985 | 12.78° C | 88% | 1030.8 hPa | 0 mm | - | 0 W/m² | - |
| 1778049783 | 12.78° C | 90% | 1030.8 hPa | 0 mm | - | 0 W/m² | - |
| 1778048580 | 12.78° C | 89% | 1030.8 hPa | 0 mm | - | 0 W/m² | - |
| 1778047374 | 12.78° C | 90% | 1031.3 hPa | 0 mm | - | 0 W/m² | - |
| 1778046173 | 12.78° C | 90% | 1031.3 hPa | 0 mm | - | 0 W/m² | - |
| 1778044970 | 13.33° C | 88% | 1031.7 hPa | 0 mm | - | 0 W/m² | - |
| 1778043770 | 13.89° C | 88% | 1031.7 hPa | 0 mm | - | 0 W/m² | - |
| 1778042570 | 13.89° C | 88% | 1031.7 hPa | 0 mm | - | 0 W/m² | - |
| 1778041367 | 13.89° C | 88% | 1031.7 hPa | 0 mm | - | 0 W/m² | - |
| 1778040168 | 14.44° C | 88% | 1031.3 hPa | 0 mm | - | 0 W/m² | - |
| 1778038968 | 14.44° C | 88% | 1030.8 hPa | 0 mm | - | 0 W/m² | - |
| 1778037767 | 14.44° C | 87% | 1030.4 hPa | 0 mm | - | 0 W/m² | - |
| 1778036562 | 15° C | 88% | 1030.4 hPa | 0 mm | - | 0 W/m² | - |
* Rain latest hour (hover to see other rain measurements)
** Current wind speed in m/s (hover to see current wind gust speed)